• In Uzbekistan
  • List of Countries
  • For 7 days
  • Water Temperature
  • Satellite Maps
  • Weather Map
  • Weather Widgets
  • user-avatar
    Login

    Hourly Weather Sankt Polten

    Today, 2 December, Friday

    Time Temperature Precipitation Wind Pressure Humidity
    00:00 -1°C° 0 mm 8 mps 735 mmHg 81%
    01:00 0°C° 0 mm 8 mps 734 mmHg 80%
    02:00 0°C° 0.1 mm 9 mps 733 mmHg 80%
    03:00 +1°C° 0.1 mm 9 mps 733 mmHg 80%
    04:00 +1°C° 0.1 mm 10 mps 733 mmHg 81%
    05:00 +1°C° 0.1 mm 10 mps 733 mmHg 81%
    06:00 +1°C° 0.1 mm 10 mps 733 mmHg 81%
    07:00 +1°C° 0 mm 10 mps 732 mmHg 81%
    08:00 +2°C° 0.2 mm 10 mps 732 mmHg 81%
    09:00 +2°C° 0.2 mm 10 mps 733 mmHg 81%
    10:00 +2°C° 0.2 mm 10 mps 733 mmHg 81%
    11:00 +2°C° 0.5 mm 9 mps 734 mmHg 82%
    12:00 +2°C° 0.5 mm 8 mps 735 mmHg 83%
    13:00 +3°C° 0 mm 5 mps 735 mmHg 83%
    14:00 +2°C° 0.3 mm 5 mps 736 mmHg 84%
    15:00 +1°C° 0.3 mm 4 mps 736 mmHg 86%
    16:00 +1°C° 0.3 mm 3 mps 737 mmHg 88%
    17:00 +1°C° 0 mm 3 mps 737 mmHg 89%
    18:00 0°C° 0 mm 3 mps 738 mmHg 90%
    19:00 -1°C° 0 mm 2 mps 738 mmHg 92%
    20:00 -1°C° 0 mm 2 mps 738 mmHg 92%
    21:00 -2°C° 0 mm 2 mps 739 mmHg 92%
    22:00 -2°C° 0 mm 2 mps 739 mmHg 92%
    23:00 -2°C° 0 mm 2 mps 739 mmHg 92%

    Tomorrow, 3 December, Saturday

    Time Temperature Precipitation Wind Pressure Humidity
    00:00 -3°C° 0 mm 2 mps 739 mmHg 92%
    01:00 -3°C° 0 mm 2 mps 739 mmHg 92%
    02:00 -3°C° 0 mm 2 mps 740 mmHg 91%
    03:00 -3°C° 0 mm 2 mps 740 mmHg 91%
    04:00 -1°C° 0 mm 1 mps 740 mmHg 90%
    05:00 -1°C° 0 mm 1 mps 740 mmHg 89%
    06:00 -2°C° 0 mm 1 mps 740 mmHg 87%
    07:00 -2°C° 0 mm 1 mps 740 mmHg 86%
    08:00 0°C° 0 mm 1 mps 740 mmHg 81%
    09:00 +1°C° 0 mm 1 mps 741 mmHg 76%
    10:00 +3°C° 0 mm 1 mps 741 mmHg 71%
    11:00 +3°C° 0 mm 1 mps 741 mmHg 69%
    12:00 +4°C° 0 mm 1 mps 741 mmHg 67%
    13:00 +4°C° 0 mm 1 mps 741 mmHg 65%
    14:00 +3°C° 0 mm 1 mps 742 mmHg 72%
    15:00 +1°C° 0 mm 1 mps 742 mmHg 80%
    16:00 -1°C° 0 mm 1 mps 742 mmHg 87%
    17:00 -1°C° 0 mm 1 mps 742 mmHg 88%
    18:00 -1°C° 0 mm 1 mps 742 mmHg 88%
    19:00 -1°C° 0 mm 1 mps 743 mmHg 88%
    20:00 -1°C° 0 mm 1 mps 743 mmHg 88%
    21:00 -1°C° 0 mm 1 mps 743 mmHg 89%
    22:00 -1°C° 0 mm 1 mps 743 mmHg 89%
    23:00 -2°C° 0 mm 1 mps 743 mmHg 90%

    Day after tomorrow, 4 December, Sunday

    Time Temperature Precipitation Wind Pressure Humidity
    00:00 -2°C° 0 mm 1 mps 743 mmHg 90%
    01:00 -2°C° 0 mm 1 mps 744 mmHg 90%
    02:00 -2°C° 0 mm 1 mps 743 mmHg 91%
    03:00 -2°C° 0 mm 1 mps 743 mmHg 92%
    04:00 -2°C° 0 mm 1 mps 743 mmHg 92%
    05:00 -2°C° 0 mm 1 mps 743 mmHg 93%
    06:00 -2°C° 0 mm 1 mps 743 mmHg 93%
    07:00 -2°C° 0 mm 1 mps 743 mmHg 93%
    08:00 -1°C° 0 mm 1 mps 744 mmHg 89%
    09:00 0°C° 0 mm 1 mps 744 mmHg 85%
    10:00 +1°C° 0 mm 1 mps 744 mmHg 81%
    11:00 +2°C° 0 mm 1 mps 744 mmHg 79%
    12:00 +2°C° 0 mm 2 mps 744 mmHg 77%
    13:00 +3°C° 0 mm 2 mps 744 mmHg 76%
    14:00 +1°C° 0 mm 2 mps 744 mmHg 81%
    15:00 -1°C° 0 mm 2 mps 744 mmHg 87%
    16:00 0°C° 0 mm 1 mps 744 mmHg 92%
    17:00 -1°C° 0 mm 1 mps 744 mmHg 92%
    18:00 -1°C° 0 mm 1 mps 745 mmHg 93%
    19:00 -1°C° 0 mm 1 mps 745 mmHg 93%
    20:00 -2°C° 0 mm 1 mps 745 mmHg 92%
    21:00 -2°C° 0 mm 1 mps 745 mmHg 92%
    22:00 -2°C° 0 mm 1 mps 745 mmHg 91%
    23:00 -2°C° 0 mm 1 mps 745 mmHg 91%

    5 December, Monday

    Time Temperature Precipitation Wind Pressure Humidity
    00:00 -2°C° 0 mm 1 mps 745 mmHg 91%
    01:00 -2°C° 0 mm 1 mps 745 mmHg 91%
    02:00 -2°C° 0 mm 1 mps 745 mmHg 91%
    03:00 -2°C° 0 mm 1 mps 744 mmHg 91%
    04:00 -2°C° 0 mm 1 mps 744 mmHg 92%
    05:00 -2°C° 0 mm 1 mps 744 mmHg 91%
    06:00 -3°C° 0 mm 1 mps 744 mmHg 91%
    07:00 -3°C° 0 mm 1 mps 744 mmHg 91%
    08:00 -1°C° 0 mm 1 mps 744 mmHg 86%
    09:00 +1°C° 0 mm 1 mps 744 mmHg 80%
    10:00 +1°C° 0 mm 0 mps 744 mmHg 74%
    11:00 +2°C° 0 mm 0 mps 744 mmHg 72%
    12:00 +3°C° 0 mm 0 mps 744 mmHg 70%
    13:00 +4°C° 0 mm 0 mps 744 mmHg 68%
    14:00 +2°C° 0 mm 0 mps 743 mmHg 76%
    15:00 0°C° 0 mm 0 mps 743 mmHg 83%
    16:00 -2°C° 0 mm 0 mps 743 mmHg 90%
    17:00 -2°C° 0 mm 0 mps 743 mmHg 90%
    18:00 -2°C° 0 mm 0 mps 743 mmHg 89%
    19:00 -2°C° 0 mm 0 mps 743 mmHg 89%
    20:00 -2°C° 0 mm 0 mps 743 mmHg 88%
    21:00 -1°C° 0 mm 1 mps 743 mmHg 87%
    22:00 -1°C° 0 mm 1 mps 743 mmHg 86%
    23:00 0°C° 0 mm 1 mps 743 mmHg 85%

    6 December, Tuesday

    Time Temperature Precipitation Wind Pressure Humidity
    00:00 0°C° 0 mm 1 mps 743 mmHg 84%
    01:00 0°C° 0 mm 1 mps 743 mmHg 82%
    02:00 0°C° 0 mm 1 mps 743 mmHg 81%
    03:00 0°C° 0 mm 1 mps 743 mmHg 80%
    04:00 0°C° 0 mm 1 mps 743 mmHg 79%
    05:00 0°C° 0 mm 1 mps 743 mmHg 79%
    06:00 0°C° 0 mm 1 mps 743 mmHg 80%
    07:00 -2°C° 0 mm 2 mps 743 mmHg 80%
    08:00 +1°C° 0 mm 1 mps 743 mmHg 76%
    09:00 +3°C° 0 mm 1 mps 743 mmHg 72%
    10:00 +4°C° 0 mm 1 mps 744 mmHg 67%
    11:00 +5°C° 0 mm 1 mps 744 mmHg 67%
    12:00 +6°C° 0 mm 1 mps 743 mmHg 66%
    13:00 +7°C° 0 mm 1 mps 743 mmHg 66%
    14:00 +5°C° 0 mm 1 mps 743 mmHg 73%
    15:00 +3°C° 0 mm 1 mps 743 mmHg 80%
    16:00 +1°C° 0 mm 1 mps 743 mmHg 87%
    17:00 +1°C° 0 mm 1 mps 743 mmHg 86%
    18:00 +1°C° 0 mm 1 mps 744 mmHg 85%
    19:00 +1°C° 0 mm 1 mps 744 mmHg 84%
    20:00 0°C° 0 mm 1 mps 744 mmHg 84%
    21:00 0°C° 0 mm 1 mps 744 mmHg 84%
    22:00 0°C° 0 mm 1 mps 745 mmHg 83%
    23:00 0°C° 0 mm 1 mps 745 mmHg 83%

    7 December, Wednesday

    Time Temperature Precipitation Wind Pressure Humidity
    00:00 0°C° 0 mm 1 mps 745 mmHg 82%
    01:00 0°C° 0 mm 1 mps 745 mmHg 82%
    02:00 0°C° 0 mm 1 mps 745 mmHg 82%
    03:00 0°C° 0 mm 1 mps 745 mmHg 83%
    04:00 0°C° 0 mm 1 mps 746 mmHg 83%
    05:00 -1°C° 0 mm 1 mps 746 mmHg 85%
    06:00 -1°C° 0 mm 1 mps 747 mmHg 87%
    07:00 -1°C° 0 mm 1 mps 747 mmHg 89%
    08:00 0°C° 0 mm 1 mps 748 mmHg 86%
    09:00 +1°C° 0 mm 1 mps 748 mmHg 83%
    10:00 +2°C° 0 mm 1 mps 749 mmHg 80%
    11:00 +3°C° 0 mm 1 mps 749 mmHg 79%
    12:00 +3°C° 0 mm 1 mps 749 mmHg 77%
    13:00 +3°C° 0 mm 2 mps 749 mmHg 75%
    14:00 +2°C° 0 mm 1 mps 749 mmHg 82%
    15:00 +1°C° 0 mm 1 mps 749 mmHg 88%
    16:00 0°C° 0 mm 1 mps 750 mmHg 94%
    17:00 -1°C° 0 mm 1 mps 750 mmHg 95%
    18:00 -1°C° 0 mm 1 mps 750 mmHg 95%
    19:00 -1°C° 0 mm 1 mps 751 mmHg 95%
    20:00 -1°C° 0 mm 1 mps 751 mmHg 95%
    21:00 -1°C° 0 mm 1 mps 751 mmHg 95%
    22:00 -1°C° 0 mm 1 mps 751 mmHg 95%
    23:00 -2°C° 0 mm 1 mps 751 mmHg 95%
    Show more